YUZGU 12 (RS6S) (53311 NORAD) Tracking and Keplerian Element Data

This shows tracking and keplerian element data for the satellite.

Feedback or suggestion? Click here.




ElementValue
Catalog53311
NameYUZGU 12 (RS6S)
Epoch Orbit2767
Epoch Day14.19303999
Epoch Year2023
RAAN354.5208
Inclination51.6267
Eccentricity0.0006175
Argument of Perigee91.6086
Mean Anonmoly268.5629
Mean Motion15.93788745
Decay Rate0.00848984
L11 53311U 98067TW 23014.19303999 .00848984 31941-3 22824-2 0 9998
L22 53311 51.6267 354.5208 0006175 91.6086 268.5629 15.93788745 27675



Live tracking and technical data element details for YUZGU 12 (RS6S) (NORAD 53311). YUZGU 12 (RS6S) can be tracked NOW for your location showing map with azimuth and elevation plus other details from your city location.







IsCatalogInMostPopularTable: catalog: 53311, numindb: 57
Update: records affected: 1



GetName: 53311 YUZGU 12 (RS6S)

Hit Count: updated at: Thu, 23 Jan 2025 16:19:45 GMT